This demonstration page uses our WeatherBlox Daily Observations layout. Learn more.

Left ArrowRight Arrow

40.92945, -100.16068

Hourly Observations for May 11, 2015

Temp ( °F °C ) Dew Point ( °F °C ) Humidity (%) Winds ( mph kmh ) Pressure ( in mb ) Visibility ( mi km ) Precip ( " mm )
12:15 am 00:15 Mostly Cloudy 39 4 33 0.5 78 78 WNW 24 39 30.06 1018 10 16.0934 N/A
12:35 am 00:35 Cloudy 40 4.5 33 0.3 74 74 NW 23 37 30.06 1018 10 16.0934 N/A
12:55 am 00:55 Cloudy 40 4.5 32 0.2 74 74 NW 22 35 30.06 1018 10 16.0934 N/A
1:15 am 01:15 Cloudy 40 4.5 32 undefined 73 73 NW 23 37 30.06 1018 10 16.0934 N/A
1:35 am 01:35 Cloudy 40 4.6 32 undefined 72 72 NW 25 41 30.06 1018 10 16.0934 N/A
1:55 am 01:55 Mostly Cloudy 40 4.3 32 undefined 74 74 NW 24 39 30.06 1018 10 16.0934 N/A
2:15 am 02:15 Partly Cloudy 39 3.8 32 undefined 77 77 NW 17 28 30.06 1018 10 16.0934 N/A
2:35 am 02:35 Clear 38 3.4 32 undefined 79 79 WNW 15 24 30.09 1019 10 16.0934 N/A
2:55 am 02:55 Mostly Cloudy 39 3.9 32 0.1 77 77 WNW 16 26 30.06 1018 10 16.0934 N/A
3:15 am 03:15 Cloudy 39 4 32 0.1 76 76 WNW 14 22 30.06 1018 10 16.0934 N/A
3:35 am 03:35 Cloudy 39 4 32 0.2 77 77 WNW 16 26 30.06 1018 10 16.0934 N/A
3:55 am 03:55 Cloudy 39 4 32 0.2 77 77 WNW 16 26 30.06 1018 10 16.0934 N/A
4:15 am 04:15 Mostly Cloudy 38 3.6 32 0.1 78 78 WNW 20 31 30.03 1017 10 16.0934 N/A
4:35 am 04:35 Partly Cloudy 37 3 32 0.1 81 81 WNW 13 20 30.09 1019 10 16.0934 N/A
4:55 am 04:55 Partly Cloudy 37 3 32 0.2 82 82 WNW 15 24 30.09 1019 10 16.0934 N/A
5:15 am 05:15 Partly Cloudy 37 3 32 undefined 81 81 WNW 16 26 30.09 1019 10 16.0934 N/A
5:35 am 05:35 Clear 37 2.7 32 undefined 83 83 WNW 16 26 30.09 1019 10 16.0934 N/A
5:55 am 05:55 Partly Cloudy 37 2.7 32 undefined 83 83 WNW 15 24 30.06 1018 10 16.0934 N/A
6:15 am 06:15 Partly Cloudy 37 2.5 32 undefined 84 84 WNW 10 17 30.09 1019 10 16.0934 N/A
6:35 am 06:35 Mostly Cloudy 38 3.2 33 0.5 83 83 WNW 13 20 30.09 1019 10 16.0934 N/A
6:55 am 06:55 Cloudy 39 3.8 33 0.6 80 80 WNW 16 26 30.06 1018 10 16.0934 N/A
7:15 am 07:15 Mostly Cloudy 39 4 33 0.7 79 79 WNW 18 30 30.06 1018 10 16.0934 N/A
7:35 am 07:35 Cloudy 40 4.3 34 1 79 79 WNW 15 24 30.06 1018 10 16.0934 N/A
7:55 am 07:55 Cloudy 40 4.7 34 1.1 78 78 NW 20 31 30.09 1019 10 16.0934 N/A
8:15 am 08:15 Cloudy 42 5.5 34 1 73 73 NW 23 37 30.09 1019 10 16.0934 N/A
8:35 am 08:35 Mostly Cloudy 43 5.9 34 1.2 72 72 NW 23 37 30.09 1019 10 16.0934 N/A
8:55 am 08:55 Mostly Cloudy 42 5.8 34 1.1 72 72 NW 23 37 30.09 1019 10 16.0934 N/A
9:15 am 09:15 Mostly Cloudy 45 7 35 1.6 69 69 NW 20 31 30.09 1019 10 16.0934 N/A
9:35 am 09:35 Partly Cloudy 46 7.6 34 1.1 64 64 NW 26 43 30.06 1018 10 16.0934 N/A
9:55 am 09:55 Mostly Cloudy 46 7.6 33 0.5 61 61 NW 26 43 30.06 1018 10 16.0934 N/A
10:15 am 10:15 Cloudy 46 8 33 0.4 59 59 NW 28 44 30.06 1018 10 16.0934 N/A
10:35 am 10:35 Cloudy 46 7.9 34 1.1 62 62 WNW 25 41 30.06 1018 10 16.0934 N/A
10:55 am 10:55 Cloudy 47 8.5 35 1.4 61 61 WNW 24 39 30.06 1018 10 16.0934 N/A
11:15 am 11:15 Mostly Cloudy 49 9.3 36 2 61 61 WNW 23 37 30.06 1018 10 16.0934 N/A
11:35 am 11:35 Mostly Cloudy 51 10.3 35 1.5 55 55 NW 30 48 30.06 1018 10 16.0934 N/A
11:55 am 11:55 Mostly Cloudy 49 9.7 32 0.1 52 52 NW 28 44 30.06 1018 10 16.0934 N/A
12:15 pm 12:15 Mostly Cloudy 50 10.1 33 0.7 52 52 NW 29 46 30.06 1018 10 16.0934 N/A
12:35 pm 12:35 Cloudy 51 10.3 33 0.6 51 51 NW 24 39 30.06 1018 10 16.0934 N/A
12:55 pm 12:55 Cloudy 52 10.9 34 1.1 51 51 NW 31 50 30.06 1018 10 16.0934 N/A
1:15 pm 13:15 Mostly Cloudy 52 11.1 35 1.6 52 52 NW 28 44 30.03 1017 10 16.0934 N/A
1:35 pm 13:35 Cloudy 52 10.9 35 1.7 53 53 NW 23 37 30.03 1017 10 16.0934 N/A
1:55 pm 13:55 Cloudy 51 10.8 35 1.5 53 53 NW 26 43 30.03 1017 10 16.0934 N/A
2:15 pm 14:15 Cloudy 52 11 35 1.9 54 54 NW 25 41 30.06 1018 10 16.0934 N/A
2:35 pm 14:35 Cloudy 52 11 36 2.1 55 55 NW 31 50 30.06 1018 10 16.0934 N/A
2:55 pm 14:55 Cloudy 53 11.5 35 1.7 51 51 NW 30 48 30.06 1018 10 16.0934 N/A
3:15 pm 15:15 Cloudy 53 11.8 36 2.1 52 52 NNW 28 44 30.06 1018 10 16.0934 N/A
3:35 pm 15:35 Cloudy 53 11.8 37 2.5 53 53 NW 26 43 30.06 1018 10 16.0934 N/A
3:55 pm 15:55 Cloudy 54 12.3 36 2.4 51 51 NW 28 44 30.06 1018 10 16.0934 N/A
4:15 pm 16:15 Mostly Cloudy 54 12.1 35 1.9 50 50 NW 23 37 30.06 1018 10 16.0934 N/A
4:35 pm 16:35 Mostly Cloudy 54 12.2 35 1.7 49 49 NNW 29 46 30.06 1018 10 16.0934 N/A
4:55 pm 16:55 Mostly Cloudy 55 12.7 35 1.6 47 47 NW 28 44 30.09 1019 10 16.0934 N/A
5:15 pm 17:15 Mostly Cloudy 54 12.1 35 1.5 49 49 NNW 29 46 30.09 1019 10 16.0934 N/A
5:35 pm 17:35 Mostly Cloudy 56 13.4 35 1.7 45 45 NW 22 35 30.09 1019 10 16.0934 N/A
5:55 pm 17:55 Partly Cloudy 56 13.2 34 1.3 45 45 NNW 23 37 30.09 1019 10 16.0934 N/A
6:15 pm 18:15 Sunny 55 13 32 undefined 41 41 NW 25 41 30.09 1019 10 16.0934 N/A
6:35 pm 18:35 Sunny 55 12.8 32 -0.2 41 41 NNW 21 33 30.09 1019 10 16.0934 N/A
6:55 pm 18:55 Sunny 55 12.5 31 -0.5 41 41 NNW 23 37 30.12 1020 10 16.0934 N/A
7:15 pm 19:15 Sunny 54 12.2 31 -0.3 42 42 NNW 22 35 30.12 1020 10 16.0934 N/A
7:35 pm 19:35 Sunny 54 12 31 -0.8 41 41 NNW 14 22 30.12 1020 10 16.0934 N/A
7:55 pm 19:55 Sunny 53 11.4 31 -0.4 44 44 NNW 12 19 30.15 1021 10 16.0934 N/A
8:15 pm 20:15 Sunny 51 10.5 32 -0.1 48 48 NNW 10 17 30.15 1021 10 16.0934 N/A
8:35 pm 20:35 Sunny 48 8.8 33 0.6 57 57 NNW 8 13 30.18 1022 10 16.0934 N/A
8:55 pm 20:55 Clear 45 7.4 32 0.2 61 61 NNW 9 15 30.21 1023 10 16.0934 N/A
9:15 pm 21:15 Clear 43 6.1 32 0.1 66 66 NNW 8 13 30.21 1023 10 16.0934 N/A
9:35 pm 21:35 Clear 41 5 32 0.1 71 71 NW 7 11 30.24 1024 10 16.0934 N/A
9:55 pm 21:55 Clear 40 4.6 32 undefined 72 72 WNW 6 9 30.24 1024 10 16.0934 N/A
10:15 pm 22:15 Clear 38 3.6 32 0.2 79 79 W 7 11 30.27 1025 10 16.0934 N/A
10:35 pm 22:35 Clear 38 3.6 33 0.3 79 79 W 7 11 30.27 1025 10 16.0934 N/A
10:55 pm 22:55 Clear 37 3 32 0.2 82 82 NW 6 9 30.27 1025 10 16.0934 N/A
11:15 pm 23:15 Clear 37 2.7 32 undefined 83 83 N N/A 30.27 1025 10 16.0934 N/A
11:35 pm 23:35 Clear 37 3 32 -0.1 80 80 W 5 7 30.27 1025 10 16.0934 N/A
11:55 pm 23:55 Clear 36 2.4 32 -0.2 83 83 W 7 11 30.3 1026 10 16.0934 N/A

Powered by AerisWeather